CGJFK BGKK-BGGH

Flight info

Callsign CGJFK
Flight time N/A
Altitude 26000
Route DA DCT ASTAN DCT NAPIB DCT EVULO DCT BAMAM
Aircraft BE60/L-SDFGRY/C

Departure

Time N/A
Airport Kulusuk Airport (BGKK)

Arrival

Time 2026-04-30 18:37
Airport Nuuk International Airport (BGGH)
Time Latitude Longitude Altitude Speed Heading
2026-04-30 17:39 65.02362 -44.92045 26047 ft 213 kts 260°
2026-04-30 17:41 64.99653 -45.19326 26041 ft 214 kts 260°
2026-04-30 17:42 64.98966 -45.26155 26041 ft 214 kts 259°
2026-04-30 17:42 64.97933 -45.36361 26049 ft 214 kts 259°
2026-04-30 17:43 64.97236 -45.43201 26043 ft 214 kts 259°
2026-04-30 17:44 64.96186 -45.53449 26028 ft 214 kts 259°
2026-04-30 17:44 64.95136 -45.63608 26029 ft 214 kts 258°
2026-04-30 17:46 64.93342 -45.80813 26040 ft 218 kts 258°
2026-04-30 17:47 64.91879 -45.94685 26042 ft 219 kts 258°
2026-04-30 17:48 64.90392 -46.08653 26046 ft 220 kts 258°
2026-04-30 17:48 64.89269 -46.19103 26048 ft 221 kts 258°
2026-04-30 17:49 64.87752 -46.33106 26035 ft 221 kts 258°
2026-04-30 17:50 64.86225 -46.47056 26029 ft 221 kts 258°
2026-04-30 17:51 64.85067 -46.57549 26029 ft 221 kts 258°
2026-04-30 17:52 64.83902 -46.68040 26011 ft 221 kts 258°
2026-04-30 17:53 64.81945 -46.85472 26003 ft 221 kts 257°
2026-04-30 17:54 64.80360 -46.99442 25992 ft 221 kts 257°
2026-04-30 17:55 64.78767 -47.13357 25992 ft 222 kts 257°
2026-04-30 17:56 64.77149 -47.27361 25978 ft 224 kts 257°
2026-04-30 17:57 64.75913 -47.37969 25961 ft 225 kts 256°
2026-04-30 17:58 64.74672 -47.48538 25959 ft 226 kts 256°
2026-04-30 17:59 64.73033 -47.62399 25961 ft 226 kts 256°
2026-04-30 18:00 64.71339 -47.76589 25960 ft 227 kts 256°
2026-04-30 18:00 64.70064 -47.87179 25958 ft 227 kts 256°
2026-04-30 18:01 64.69206 -47.94270 25957 ft 227 kts 256°
2026-04-30 18:02 64.67912 -48.04905 25956 ft 227 kts 256°
2026-04-30 18:02 64.66608 -48.15542 25956 ft 227 kts 256°
2026-04-30 18:03 64.65283 -48.26097 25955 ft 225 kts 256°
2026-04-30 18:04 64.63996 -48.36640 25949 ft 225 kts 255°
2026-04-30 18:05 64.62243 -48.50639 25956 ft 224 kts 255°
2026-04-30 18:06 64.60485 -48.64550 25958 ft 224 kts 255°
2026-04-30 18:07 64.58709 -48.78491 25975 ft 226 kts 255°
2026-04-30 18:08 64.57358 -48.89020 25972 ft 228 kts 255°
2026-04-30 18:09 64.55526 -49.03178 25980 ft 229 kts 255°
2026-04-30 18:10 64.53673 -49.17373 25945 ft 229 kts 255°
2026-04-30 18:11 64.51816 -49.31476 25940 ft 229 kts 254°
2026-04-30 18:11 64.50411 -49.42069 25944 ft 229 kts 254°
2026-04-30 18:12 64.48996 -49.52666 25921 ft 229 kts 254°
2026-04-30 18:13 64.48055 -49.59679 25923 ft 229 kts 254°
2026-04-30 18:13 64.46789 -49.69069 25911 ft 229 kts 254°
2026-04-30 18:14 64.45673 -49.77294 25909 ft 228 kts 254°
2026-04-30 18:15 64.44239 -49.87815 25908 ft 229 kts 254°
2026-04-30 18:15 64.42796 -49.98331 25906 ft 229 kts 254°
2026-04-30 18:16 64.41831 -50.05325 25895 ft 227 kts 254°
2026-04-30 18:16 64.40871 -50.12260 25900 ft 227 kts 253°
2026-04-30 18:17 64.40387 -50.15741 25900 ft 228 kts 253°
2026-04-30 18:17 64.39902 -50.19226 25900 ft 227 kts 253°
2026-04-30 18:17 64.38937 -50.26141 25917 ft 228 kts 253°
2026-04-30 18:18 64.38451 -50.29607 25578 ft 227 kts 253°
2026-04-30 18:18 64.37970 -50.33026 25032 ft 221 kts 253°
2026-04-30 18:18 64.37506 -50.36367 24470 ft 217 kts 254°
2026-04-30 18:18 64.37055 -50.39664 23938 ft 214 kts 254°
2026-04-30 18:19 64.36609 -50.42924 23398 ft 212 kts 254°
2026-04-30 18:19 64.36166 -50.46168 22764 ft 211 kts 254°
2026-04-30 18:19 64.35721 -50.49408 22139 ft 212 kts 254°
2026-04-30 18:19 64.35279 -50.52645 21570 ft 212 kts 254°
2026-04-30 18:20 64.34837 -50.55888 21035 ft 212 kts 254°
2026-04-30 18:20 64.34402 -50.59084 20495 ft 212 kts 254°
2026-04-30 18:20 64.33963 -50.62320 19972 ft 211 kts 254°
2026-04-30 18:20 64.33526 -50.65544 19469 ft 211 kts 254°
2026-04-30 18:21 64.33090 -50.68775 18963 ft 210 kts 254°
2026-04-30 18:21 64.32656 -50.71992 18466 ft 210 kts 254°
2026-04-30 18:21 64.32223 -50.75207 17957 ft 210 kts 254°
2026-04-30 18:21 64.31791 -50.78412 17411 ft 209 kts 254°
2026-04-30 18:22 64.31363 -50.81603 16898 ft 208 kts 253°
2026-04-30 18:22 64.30523 -50.87906 15904 ft 206 kts 253°
2026-04-30 18:22 64.30107 -50.91051 15411 ft 205 kts 254°
2026-04-30 18:23 64.29696 -50.94179 14917 ft 204 kts 254°
2026-04-30 18:23 64.29288 -50.97291 14448 ft 202 kts 254°
2026-04-30 18:23 64.28882 -51.00380 13993 ft 201 kts 254°
2026-04-30 18:23 64.28481 -51.03451 13534 ft 200 kts 254°
2026-04-30 18:24 64.27686 -51.09533 12534 ft 197 kts 254°
2026-04-30 18:24 64.27294 -51.12537 12048 ft 195 kts 253°
2026-04-30 18:24 64.26605 -51.15180 11548 ft 195 kts 226°
2026-04-30 18:25 64.25605 -51.17208 11089 ft 194 kts 221°
2026-04-30 18:25 64.23547 -51.21147 10207 ft 191 kts 220°
2026-04-30 18:25 64.22531 -51.23094 9758 ft 189 kts 220°
2026-04-30 18:26 64.20516 -51.26975 8831 ft 191 kts 221°
2026-04-30 18:26 64.19501 -51.28947 8394 ft 191 kts 221°
2026-04-30 18:26 64.18489 -51.30928 7946 ft 191 kts 220°
2026-04-30 18:27 64.16519 -51.34836 7616 ft 187 kts 221°
2026-04-30 18:27 64.15637 -51.36994 7618 ft 187 kts 239°
2026-04-30 18:28 64.14547 -51.42477 7620 ft 191 kts 245°
2026-04-30 18:28 64.14015 -51.45276 7622 ft 192 kts 245°
2026-04-30 18:28 64.12941 -51.50937 7620 ft 195 kts 245°
2026-04-30 18:29 64.12398 -51.53793 7622 ft 196 kts 246°
2026-04-30 18:29 64.10744 -51.62385 7623 ft 199 kts 246°
2026-04-30 18:30 64.09623 -51.68196 7619 ft 200 kts 246°
2026-04-30 18:30 64.08445 -51.74297 7049 ft 220 kts 246°
2026-04-30 18:31 64.07820 -51.77551 6719 ft 226 kts 245°
2026-04-30 18:31 64.05668 -51.82347 5997 ft 221 kts 190°
2026-04-30 18:32 64.03164 -51.80065 5382 ft 198 kts 123°
2026-04-30 18:32 64.02832 -51.77103 4886 ft 194 kts 87°
2026-04-30 18:32 64.04490 -51.72870 3886 ft 191 kts 11°
2026-04-30 18:33 64.05782 -51.73265 3404 ft 189 kts 337°
2026-04-30 18:33 64.08086 -51.75905 2499 ft 178 kts 340°
2026-04-30 18:33 64.09233 -51.75668 2174 ft 167 kts 29°
2026-04-30 18:34 64.10258 -51.74656 1988 ft 156 kts 20°
2026-04-30 18:34 64.12062 -51.73269 1742 ft 127 kts 20°
2026-04-30 18:34 64.12888 -51.72560 1589 ft 127 kts 23°
2026-04-30 18:35 64.13655 -51.71887 1426 ft 110 kts 20°
2026-04-30 18:35 64.14381 -51.71351 1221 ft 112 kts 17°
2026-04-30 18:35 64.15103 -51.70777 999 ft 108 kts 19°
2026-04-30 18:36 64.16502 -51.69768 659 ft 103 kts 18°
2026-04-30 18:36 64.17174 -51.69285 495 ft 101 kts 15°
2026-04-30 18:36 64.18449 -51.68395 261 ft 77 kts 17°
2026-04-30 18:37 64.18844 -51.68109 271 ft 38 kts 18°
2026-04-30 18:37 64.18968 -51.67934 274 ft 16 kts 32°
2026-04-30 18:37 64.19053 -51.67848 274 ft 11 kts 31°
2026-04-30 18:37 64.19084 -51.67747 274 ft 6 kts 99°
2026-04-30 18:38 64.19076 -51.67665 274 ft 6 kts 104°
2026-04-30 18:38 64.19069 -51.67514 274 ft 13 kts 57°
2026-04-30 18:38 64.19147 -51.67418 274 ft 13 kts 85°
2026-04-30 18:38 64.19119 -51.67331 274 ft 4 kts 168°
2026-04-30 18:39 64.19104 -51.67325 274 ft 0 kts 170°